Dewpoint
50 50 50 49 49 49 49 48 48 48 48 49 49 49 49 48 47 47 47 47 46 46 46 47 47 46 47 47 47 48 50 46 45 43 35 40 49 54 57 57 56 56 53 47 45 43 44 46 47 50 50 51 50 50 51 50 50 51 45 43 41 40 38 38 38 45 44 42 46 49 51 50 47 51 50 51 52 52 52 54 54 55 55 55 55 55 55 57
49 49 50 50 49 49 49 48 49 48 47 48 48 47 47 47 47 46 46 46 46 47 47 47 47 47 46 47 48 48 47 46 43 37 31 51 52 52 53 55 55 55 53 44 42 43 41 41 42 47 50 49 52 49 50 49 50 47 45 44 40 39 39 38 44 44 45 46 46 50 51 50 49 51 52 50 46 48 48 50 52 53 55 55 56 56 56 57
47 49 49 49 49 50 48 48 49 48 48 47 46 46 46 47 47 46 46 47 47 47 46 46 46 47 47 47 47 49 45 45 42 35 49 54 54 53 53 54 54 55 50 43 42 42 40 40 39 40 48 47 49 47 49 48 48 47 45 41 41 41 39 39 38 48 47 47 46 47 50 50 50 50 54 50 47 47 47 47 52 50 52 54 55 56 57 57
48 49 49 49 49 49 48 46 47 48 48 48 48 46 46 46 46 46 46 47 47 47 47 47 47 47 46 47 51 45 46 43 36 43 47 55 54 55 52 53 54 54 50 47 45 39 40 39 42 37 39 44 45 47 48 48 46 46 45 42 40 39 38 38 39 46 49 48 47 47 49 47 49 50 49 48 46 47 50 51 51 51 53 54 55 56 56 56
48 49 48 49 49 48 46 47 48 48 48 47 46 46 46 46 46 46 46 47 47 47 46 47 47 46 45 50 49 46 41 33 41 44 46 54 55 55 51 51 53 49 48 45 41 40 40 38 42 43 39 36 39 44 45 46 46 45 42 42 41 40 38 39 39 44 46 48 46 47 48 46 51 46 49 48 47 47 51 52 53 53 55 55 55 56 56 53
48 48 48 48 47 47 47 47 47 47 47 46 46 45 45 46 46 46 47 47 48 47 47 47 46 46 46 46 47 45 42 19 47 44 48 52 53 53 52 52 51 48 44 43 40 38 42 43 41 39 37 36 36 37 41 44 47 43 42 41 42 41 39 40 42 44 45 45 45 45 45 45 47 48 48 50 49 51 53 53 52 50 51 52 51 51 49 48
48 47 47 47 46 46 47 47 46 46 46 46 45 46 45 45 46 46 47 47 47 47 47 47 46 46 46 49 46 45 41 43 44 46 48 50 53 52 54 53 50 45 43 41 38 36 38 40 38 38 36 35 34 34 36 41 45 45 41 40 39 39 39 41 44 45 43 43 43 44 44 44 47 46 49 47 51 52 54 53 50 49 46 46 46 45 45 44
47 46 47 47 47 46 46 46 45 45 46 46 45 45 46 46 46 46 47 48 47 48 47 47 47 46 47 46 44 36 39 40 38 45 45 47 50 53 52 49 48 44 40 39 36 34 36 35 37 39 34 32 36 29 31 34 42 43 42 41 40 39 42 45 45 43 44 46 43 43 44 44 45 47 47 45 50 49 52 52 48 47 44 42 40 39 39 39
47 47 46 45 46 46 46 45 45 45 45 45 45 45 46 46 45 47 49 49 48 48 47 46 47 46 48 46 42 35 33 37 40 39 39 42 41 47 50 43 41 39 36 36 36 34 35 33 37 37 33 32 34 32 32 31 32 40 40 41 40 38 38 43 43 42 40 43 41 41 42 44 47 48 45 47 39 48 52 49 47 45 42 40 37 37 35 35
47 46 46 46 46 46 45 45 44 45 45 45 45 45 46 45 46 48 50 48 48 45 46 47 47 48 47 45 42 29 37 38 39 37 37 39 39 43 43 41 35 33 32 32 32 31 32 32 31 40 37 37 39 35 36 34 31 36 37 37 37 38 39 42 40 40 43 42 41 40 42 42 45 45 42 39 38 48 50 47 45 42 38 37 36 34 34 33
46 46 45 45 45 45 45 44 44 44 44 44 45 46 44 45 46 49 50 47 47 46 46 47 48 47 45 44 37 22 35 36 37 37 36 42 34 36 35 33 37 32 31 30 29 30 30 33 40 45 40 35 37 35 37 33 33 34 36 36 35 39 39 42 39 40 42 41 40 39 42 41 43 42 42 40 44 49 47 45 42 38 35 33 33 32 32 31
46 46 45 45 44 45 45 45 44 44 44 44 45 44 44 45 47 50 49 47 47 45 47 47 48 47 45 41 29 34 35 35 35 35 38 37 35 35 37 33 33 32 34 31 29 35 33 37 43 42 33 38 27 38 35 38 34 33 32 32 33 32 32 37 40 42 41 40 40 38 38 35 38 38 42 40 44 49 45 43 40 37 35 32 31 31 30 28
46 45 44 45 44 44 44 45 44 44 45 45 44 43 44 46 49 50 47 47 47 47 47 48 47 48 42 31 37 36 37 34 34 35 35 37 39 34 36 42 37 35 35 34 37 42 41 40 43 40 42 38 35 28 38 33 37 34 33 33 31 30 28 29 37 42 39 39 40 40 31 30 32 38 38 41 44 46 43 41 38 35 33 31 30 29 28 28
44 44 44 44 44 43 44 44 45 44 45 44 43 44 45 47 49 51 45 44 45 48 47 45 47 46 39 34 39 44 40 36 34 34 35 36 33 38 35 40 42 41 43 38 41 40 44 37 43 42 44 40 36 38 34 36 34 31 32 32 27 23 22 23 27 31 35 37 40 37 30 28 33 35 38 38 43 44 41 38 35 34 32 30 29 28 26 26
44 44 44 44 44 44 44 44 45 44 45 43 43 44 46 48 49 46 46 45 43 44 44 44 46 42 34 36 45 46 44 37 32 34 37 36 33 36 33 36 39 37 42 43 43 45 43 43 43 40 37 42 41 34 28 31 30 30 29 25 27 24 22 19 22 27 26 37 39 36 30 29 28 31 36 38 39 41 36 34 32 31 30 30 28 26 25 24
44 44 44 43 43 43 43 43 44 44 44 43 43 45 47 48 47 48 49 48 45 42 45 43 40 34 32 34 39 43 43 33 33 37 39 35 34 36 33 39 42 41 41 44 43 44 41 42 37 37 38 38 37 32 26 23 24 29 25 22 25 25 22 26 29 27 29 37 38 33 28 29 26 31 35 38 39 34 31 29 29 28 26 26 26 26 24 23
43 43 43 43 43 43 42 43 44 44 42 42 44 45 46 44 46 46 44 45 47 45 45 38 38 41 31 39 45 37 34 36 40 36 39 36 34 39 38 40 35 38 42 44 44 42 42 38 39 36 38 33 32 31 24 19 18 24 26 21 22 24 24 18 26 29 33 36 33 35 30 25 26 30 32 35 34 32 28 27 27 27 25 24 24 23 22 21
42 42 42 42 42 42 42 43 43 43 41 43 44 45 47 42 46 44 44 45 42 45 44 44 42 34 27 39 33 33 33 36 41 40 40 37 37 37 41 35 40 39 41 39 42 36 38 33 35 28 30 31 31 27 22 14 15 17 23 22 21 18 15 19 23 29 32 33 35 33 31 22 25 28 29 30 31 28 26 26 25 24 24 24 23 21 20 19
42 42 41 41 41 42 42 43 42 40 40 43 44 45 45 42 45 46 36 42 39 30 31 30 33 26 29 31 38 38 35 42 42 41 38 37 43 41 41 40 40 36 34 34 34 36 35 32 34 28 24 26 26 27 23 19 23 22 21 21 23 19 14 14 27 30 32 32 31 30 29 25 25 26 27 27 28 26 25 25 25 24 22 22 21 20 19 18
42 41 40 40 40 41 42 42 41 38 40 41 40 41 38 31 34 29 31 33 32 33 32 35 37 33 34 34 33 36 42 43 37 39 40 42 40 40 39 39 39 38 34 28 33 34 33 27 25 25 23 23 25 24 24 25 24 28 25 25 20 20 22 26 27 31 29 28 27 27 28 27 24 25 25 25 25 24 23 22 22 21 21 20 19 18 17 16
41 39 40 40 40 41 42 41 40 38 40 39 39 39 29 34 28 21 27 29 33 34 32 33 32 31 30 35 36 35 34 38 39 37 39 42 41 39 33 36 35 30 31 29 31 37 33 25 23 25 24 20 18 22 22 24 26 26 25 24 21 22 16 28 27 26 29 27 23 24 24 26 23 24 24 24 23 22 21 20 19 18 18 18 16 16 15 15
40 39 40 40 40 41 40 40 40 38 39 40 37 34 33 35 36 38 36 23 31 36 37 36 39 33 37 37 39 40 38 34 34 35 39 41 40 34 33 32 31 25 30 32 30 28 26 24 25 26 23 22 21 23 28 26 25 25 22 23 21 19 20 26 29 26 29 26 21 17 20 23 23 22 23 23 22 20 19 19 18 16 16 15 15 14 13 12
40 39 40 40 41 39 38 39 39 38 34 35 34 33 32 34 36 37 36 26 27 36 33 32 29 30 34 37 35 38 34 31 30 33 35 38 38 35 34 28 29 28 31 32 24 21 20 23 23 20 22 21 26 27 27 26 27 24 24 20 19 20 16 17 22 26 28 23 20 21 18 25 23 23 22 23 22 21 21 19 17 16 14 13 13 12 11 10
40 40 40 41 39 37 39 41 40 34 30 30 31 32 33 35 36 36 37 26 25 28 30 31 30 29 28 27 34 33 32 30 32 30 37 34 34 36 31 32 27 26 26 29 27 23 21 24 21 17 16 16 18 24 24 20 19 24 25 22 19 21 21 20 19 24 25 25 24 20 19 24 23 21 21 22 22 21 19 17 15 15 15 14 13 12 11 8
39 40 40 40 37 37 39 40 31 29 33 29 27 30 32 35 34 36 35 25 26 25 36 35 35 28 30 38 36 31 31 31 31 35 36 32 32 35 31 33 30 24 27 27 27 24 22 23 25 25 17 17 22 20 22 24 17 18 23 23 21 22 19 22 24 23 15 15 23 22 12 14 23 21 21 21 20 17 16 14 12 11 11 11 9 8 8 10
39 39 40 40 36 36 37 37 25 28 29 25 27 29 31 37 37 34 34 23 19 27 33 22 37 22 38 28 30 34 35 26 35 33 34 32 38 34 34 28 29 23 27 26 25 23 24 25 24 23 23 23 21 20 21 24 18 16 15 20 24 24 22 22 22 17 15 14 18 20 11 6 22 20 19 19 18 16 14 13 11 10 9 9 8 7 5 5
39 39 39 39 35 36 31 24 25 32 33 29 28 30 33 34 39 35 31 19 16 26 20 23 29 22 33 29 28 32 24 23 36 34 33 34 29 38 29 28 28 29 30 27 20 18 26 23 21 22 23 20 18 13 19 14 16 13 22 21 21 21 23 23 22 20 17 18 19 19 12 8 11 19 19 18 16 14 13 11 10 9 7 6 5 4 3 3
39 39 39 38 34 33 28 26 28 24 23 26 30 33 35 34 39 36 25 9 4 23 20 22 23 34 28 31 27 23 23 28 24 27 32 36 33 34 32 27 27 26 29 23 13 21 25 23 24 23 19 16 15 19 18 16 18 17 21 23 18 18 22 22 22 21 18 17 15 17 19 15 13 18 20 19 15 13 12 11 9 8 6 3 3 3 3 2
39 38 38 37 35 34 34 26 23 21 25 29 33 36 33 38 36 26 18 8 12 21 31 23 36 32 26 29 19 22 25 24 22 25 32 36 29 31 25 24 27 23 28 25 21 21 23 24 25 26 20 15 19 16 18 17 17 26 25 24 23 22 19 21 17 20 20 16 13 15 18 13 13 18 19 19 17 15 15 11 9 6 5 4 2 1 1 1
38 37 38 35 32 32 29 35 27 30 28 31 37 35 37 36 28 12 1 -8 14 14 19 22 24 17 20 22 18 19 19 21 24 26 25 24 23 25 29 31 24 19 20 26 22 23 18 28 27 21 17 18 16 17 20 19 21 25 24 22 20 15 15 18 19 18 17 16 16 17 17 14 10 16 18 18 13 10 14 8 5 5 3 1 0 0 2 0
37 37 37 31 24 27 28 24 25 31 31 34 36 37 36 27 18 8 1 8 14 14 22 18 15 22 15 14 12 16 17 18 19 22 18 20 17 18 18 25 19 17 18 22 21 20 20 24 21 22 18 18 20 19 23 21 24 22 19 19 20 18 15 17 16 18 14 12 15 18 17 18 10 15 9 5 6 7 8 6 5 3 2 2 1 0 1 0
36 36 35 28 31 32 18 22 26 32 34 36 37 33 27 18 12 3 -3 24 10 14 13 12 14 13 12 13 12 13 14 14 16 17 15 14 13 12 11 11 12 15 15 17 19 22 18 17 19 23 22 15 17 16 19 20 21 18 17 19 15 13 13 9 14 12 12 10 12 18 18 17 14 6 3 3 4 5 6 5 4 2 0 -0 -1 -1 1 1
36 35 37 31 27 28 26 28 31 32 34 36 35 33 19 7 -6 12 8 12 9 15 13 17 10 12 9 14 10 11 14 11 16 14 18 17 13 11 11 10 10 12 12 12 10 15 15 13 14 14 22 18 17 13 14 14 15 14 16 17 14 10 10 6 10 11 11 13 8 14 19 15 14 5 4 2 2 3 4 3 3 1 -1 -2 -3 -3 -3 -1
35 34 34 32 30 27 29 28 31 32 33 34 32 17 10 -8 -8 18 10 14 9 16 17 9 9 11 11 10 6 11 11 10 11 11 14 12 13 10 12 9 10 10 10 14 8 8 7 9 11 11 12 14 13 14 14 13 13 13 21 19 18 16 12 7 9 8 9 10 7 13 14 14 13 6 3 3 2 2 1 -0 0 -1 -2 -4 -5 -5 -6 -6
35 34 35 36 33 30 30 29 33 33 34 31 21 17 -4 -6 6 7 10 12 13 18 9 8 8 8 9 7 9 8 8 8 9 10 10 11 9 8 8 8 7 9 9 12 9 6 3 8 10 15 14 12 8 16 17 13 12 17 18 18 16 14 16 10 14 11 9 8 7 7 11 8 5 5 5 3 2 1 1 -1 -2 -4 -4 -4 -7 -7 -8 -8
31 32 32 30 25 26 32 32 33 34 33 27 17 11 6 7 6 16 14 16 14 11 4 10 7 7 8 7 8 9 10 7 7 8 7 7 6 7 6 6 6 7 8 9 7 6 7 5 7 16 13 8 9 14 16 16 11 15 14 15 14 13 13 12 13 14 12 9 7 11 7 5 5 3 3 2 1 -0 -1 -3 -4 -5 -5 -6 -7 -8 -9 -10
31 31 28 25 25 28 33 31 33 33 29 22 13 8 10 9 14 13 14 12 12 12 8 5 7 8 3 6 7 3 8 9 8 8 7 7 5 3 3 5 8 5 6 8 9 7 3 6 7 13 3 8 11 13 16 13 13 10 12 10 15 16 14 13 9 10 11 8 7 11 7 5 3 3 3 1 -1 -1 -2 -3 -4 -5 -6 -8 -8 -9 -10 -10
31 30 30 22 25 30 33 34 32 29 27 19 16 17 12 9 14 12 14 14 15 13 9 6 8 8 2 7 7 4 8 10 6 6 4 4 1 2 2 3 6 5 5 6 9 7 9 2 5 5 6 10 14 13 13 11 13 8 6 11 12 10 10 13 10 6 5 5 6 7 8 6 4 2 3 1 -1 -2 -3 -3 -4 -6 -7 -8 -10 -10 -9 -9
34 30 26 23 25 25 35 30 30 27 24 13 14 14 13 10 12 11 12 14 15 8 8 7 5 6 9 9 4 5 7 8 5 5 2 3 3 2 1 1 2 5 7 8 8 9 8 1 3 5 1 2 6 9 4 4 7 10 12 10 8 9 9 9 13 10 10 6 7 6 6 7 2 2 3 1 -0 -2 -3 -3 -6 -8 -9 -11 -12 -12 -13 -13
29 25 23 26 24 28 29 30 30 22 20 15 14 10 11 9 10 12 12 11 7 9 8 4 7 7 6 5 5 3 5 5 7 5 4 4 4 4 1 5 2 5 6 8 7 7 5 3 -5 4 2 5 6 3 3 4 3 5 7 4 5 2 7 7 7 7 9 8 7 6 4 3 2 1 0 1 -1 -2 -2 -5 -7 -8 -8 -9 -10 -11 -12 -13
29 16 23 26 25 30 32 27 17 14 12 12 13 10 9 9 10 9 12 14 8 9 10 9 9 5 2 3 4 5 4 6 5 5 3 2 3 2 0 3 5 5 7 6 5 6 0 2 -1 1 0 3 0 2 3 2 3 2 3 2 5 2 2 -2 -1 9 5 7 6 6 5 4 1 3 1 0 -1 -1 -2 -5 -6 -7 -7 -7 -7 -7 -11 -12
20 15 21 23 28 28 28 17 14 16 13 11 9 10 9 12 7 6 7 8 7 5 8 9 7 7 6 5 5 4 5 4 4 2 1 3 -1 0 -1 4 4 7 7 3 2 4 2 -1 -5 -7 -2 0 1 3 6 5 2 3 4 2 5 -0 -2 -1 -4 -2 -2 1 6 4 3 5 3 5 -0 -2 -2 -1 -4 -5 -6 -7 -6 -6 -6 -6 -7 -8
18 18 23 27 28 24 19 13 15 13 9 8 12 10 9 7 6 6 6 8 5 6 5 5 4 3 3 4 2 3 3 2 4 2 -0 -1 -1 0 1 4 7 4 6 9 5 8 10 -2 -7 -4 1 2 3 3 4 4 4 0 1 2 1 -1 -4 -7 -8 -7 -7 -4 -2 0 2 4 4 3 -2 -3 -2 -3 -4 -3 0 -2 -7 -8 -9 -10 -11 -12
13 15 18 23 28 24 15 10 9 8 8 6 8 7 8 7 8 6 5 6 7 5 5 3 3 5 1 3 2 -1 1 -4 2 3 2 0 -0 -1 2 3 6 7 8 6 6 6 -6 -7 -14 -15 -13 -5 -2 1 1 -1 1 -2 -3 -0 -3 -3 -5 -5 -5 -6 -10 -8 -4 -7 -8 -0 2 1 -2 -2 -3 -4 -3 -3 -3 -3 -5 -7 -8 -9 -10 -11
15 14 15 19 19 18 17 11 12 9 8 5 6 6 4 5 6 6 5 4 5 4 2 0 2 2 1 2 -0 2 3 2 -2 2 2 0 -1 0 -0 1 4 6 8 7 9 4 -1 -4 -9 -15 -22 -25 -25 -13 -9 -6 -4 -4 -4 -4 -3 -6 -7 -12 -13 -8 -8 -0 -3 -6 -8 -2 1 1 -1 -2 -3 -3 -2 -2 -1 -3 -3 -5 -6 -6 -9 -10
17 9 16 15 14 15 15 15 14 10 7 3 1 2 4 3 4 5 5 5 5 5 5 4 4 4 1 -0 -2 -4 1 3 -1 -3 0 -1 -1 0 -2 -1 2 4 7 7 10 4 -10 -8 -3 -9 -10 -11 -8 -9 -7 -2 -7 -9 -9 -7 -8 -9 -7 -8 -9 -11 -12 -11 -12 -9 -7 -4 -2 1 -1 -1 -2 -2 -1 -0 -0 -0 -1 -1 -3 -4 -6 -8
18 17 14 8 13 12 11 11 10 7 5 5 1 2 2 3 3 1 6 1 4 4 3 4 3 -2 -3 -2 -3 -4 -3 -1 2 -3 -4 -1 -1 -1 -0 -2 -0 5 6 5 8 4 -7 -9 -8 -8 -8 -7 -7 -7 -5 -5 -10 -8 -9 -9 -9 -9 -10 -8 -11 -12 -5 -11 -14 -3 -6 -9 -2 0 -0 0 0 1 2 2 3 2 2 2 1 -0 2 -6
18 10 10 8 11 9 6 5 7 6 7 4 1 2 1 2 3 0 3 4 3 3 -0 -1 1 0 -4 -6 -7 -10 -8 -8 -8 -8 -6 -6 -8 -6 -5 -0 -4 2 3 -2 5 -3 -9 -12 -11 -9 -11 -7 -6 -6 -9 -10 -9 -8 -7 -6 -7 -8 -10 -12 -12 -9 -9 -9 -13 -11 -7 -8 -6 -5 -3 -0 4 4 5 4 5 5 4 3 2 1 -3 -5
16 12 10 10 11 9 10 9 10 9 8 7 8 3 2 4 5 5 3 1 1 3 2 -6 1 1 1 0 -1 -7 -6 -12 -12 -6 -6 -5 -4 -5 -7 -2 -1 -1 -3 -4 -2 -0 -6 -8 -11 -8 -12 -10 -9 -8 -9 -9 -10 -11 -11 -7 -6 -8 -9 -9 -9 -8 -8 -8 -7 -6 -5 -6 -5 -5 -3 -1 1 -1 -2 7 9 8 5 4 2 1 -3 -6
12 13 9 9 9 8 6 8 10 7 7 9 2 3 3 4 2 2 2 0 -4 -2 1 -1 -0 1 2 0 1 -6 -6 -2 -10 -10 -4 -7 -10 -2 -2 1 -3 -2 -3 -5 -8 -5 -4 0 -1 -8 -13 -13 -11 -8 -10 -11 -12 -13 -10 -9 -9 -9 -8 -8 -9 -10 -9 -11 -10 -11 -10 -11 -9 -10 -3 1 5 7 8 6 9 8 6 4 1 -1 -3 -7
17 16 11 9 6 6 4 3 5 6 3 2 3 3 4 3 2 3 2 4 1 0 1 -0 1 -1 1 2 2 2 2 1 1 -1 0 -0 -7 2 -4 -1 0 -6 -6 -7 -6 -7 -9 -10 -11 -10 -18 -21 -13 -14 -13 -13 -12 -13 -13 -13 -12 -11 -12 -11 -9 -10 -11 -12 -13 -13 -13 -12 -11 -3 -6 -6 -4 -1 -1 5 5 6 6 4 1 -2 -5 -9
19 17 12 15 9 11 4 -2 -1 2 7 10 5 4 2 3 4 3 -1 2 2 0 -1 1 -3 1 -2 2 3 4 5 5 5 5 5 4 5 5 5 2 0 -1 -6 -4 -8 -8 -10 -12 -14 -13 -17 -22 -13 -13 -15 -15 -14 -16 -14 -11 -12 -13 -12 -12 -11 -9 -10 -11 -12 -12 -13 -12 -11 -5 -9 -9 -8 -8 -6 -6 -5 -1 3 1 -2 -4 -7 -11